Time,TemperatureF,DewpointF,PressureIn,WindDirection,WindDirectionDegrees,WindSpeedMPH,WindSpeedGustMPH,Humidity,HourlyPrecipIn,Conditions,Clouds,dailyrainin,SoftwareType,DateUTC
2013-04-26 00:01:00,61.2,46.3,29.67,ESE,109,2.0,3.0,58,0.00,,,0.00,VWS V14.01,2013-04-26 05:01:00,
2013-04-26 00:06:00,61.1,46.2,29.66,ESE,109,0.0,3.0,58,0.00,,,0.00,VWS V14.01,2013-04-26 05:06:00,
2013-04-26 00:11:00,61.1,45.8,29.66,ESE,103,1.0,2.0,57,0.00,,,0.00,VWS V14.01,2013-04-26 05:11:00,
2013-04-26 00:16:00,61.2,45.9,29.66,SE,125,1.0,2.0,57,0.00,,,0.00,VWS V14.01,2013-04-26 05:16:00,
2013-04-26 00:21:00,61.2,45.4,29.65,SSE,161,2.0,2.0,56,0.00,,,0.00,VWS V14.01,2013-04-26 05:21:00,
2013-04-26 00:26:00,61.4,45.1,29.66,SE,139,2.0,5.0,55,0.00,,,0.00,VWS V14.01,2013-04-26 05:26:00,
2013-04-26 00:31:00,61.6,44.8,29.66,ESE,104,2.0,3.0,54,0.00,,,0.00,VWS V14.01,2013-04-26 05:31:00,
2013-04-26 00:36:00,61.7,44.9,29.66,SE,140,0.0,6.0,54,0.00,,,0.00,VWS V14.01,2013-04-26 05:36:00,
2013-04-26 00:41:00,61.7,44.9,29.65,SSE,163,1.0,2.0,54,0.00,,,0.00,VWS V14.01,2013-04-26 05:41:00,
2013-04-26 00:46:00,61.6,44.3,29.66,SSE,167,0.0,3.0,53,0.00,,,0.00,VWS V14.01,2013-04-26 05:46:00,
2013-04-26 00:51:00,61.6,44.3,29.66,ESE,105,1.0,2.0,53,0.00,,,0.00,VWS V14.01,2013-04-26 05:51:00,
2013-04-26 00:56:00,61.6,44.3,29.66,East,88,2.0,7.0,53,0.00,,,0.00,VWS V14.01,2013-04-26 05:56:00,
2013-04-26 01:01:00,61.5,44.2,29.65,SSE,156,3.0,3.0,53,0.00,,,0.00,VWS V14.01,2013-04-26 06:01:00,
2013-04-26 01:06:00,61.4,44.6,29.65,ESE,102,2.0,6.0,54,0.00,,,0.00,VWS V14.01,2013-04-26 06:06:00,
2013-04-26 01:11:00,61.2,44.4,29.64,ESE,109,1.0,2.0,54,0.00,,,0.00,VWS V14.01,2013-04-26 06:11:00,
2013-04-26 01:16:00,61.1,44.3,29.64,ESE,106,0.0,4.0,54,0.00,,,0.00,VWS V14.01,2013-04-26 06:16:00,
2013-04-26 01:21:00,61.1,44.3,29.64,East,88,0.0,5.0,54,0.00,,,0.00,VWS V14.01,2013-04-26 06:21:00,
2013-04-26 01:26:00,61.1,44.3,29.64,SW,228,5.0,7.0,54,0.00,,,0.00,VWS V14.01,2013-04-26 06:26:00,
2013-04-26 01:31:00,61.1,43.9,29.64,SSE,152,1.0,2.0,53,0.00,,,0.00,VWS V14.01,2013-04-26 06:31:00,
2013-04-26 01:36:00,61.1,43.9,29.64,ESE,105,1.0,5.0,53,0.00,,,0.00,VWS V14.01,2013-04-26 06:36:00,
2013-04-26 01:41:00,61.1,43.9,29.64,ESE,112,0.0,1.0,53,0.00,,,0.00,VWS V14.01,2013-04-26 06:41:00,
2013-04-26 01:46:00,61.0,43.8,29.64,East,96,0.0,4.0,53,0.00,,,0.00,VWS V14.01,2013-04-26 06:46:00,
2013-04-26 01:51:00,61.0,43.8,29.64,SSE,152,2.0,4.0,53,0.00,,,0.00,VWS V14.01,2013-04-26 06:51:00,
2013-04-26 01:56:00,61.1,43.9,29.64,SSW,203,5.0,5.0,53,0.00,,,0.00,VWS V14.01,2013-04-26 06:56:00,
2013-04-26 02:01:00,61.1,44.3,29.64,East,98,0.0,3.0,54,0.00,,,0.00,VWS V14.01,2013-04-26 07:01:00,
2013-04-26 02:06:00,61.2,44.0,29.63,ESE,115,0.0,6.0,53,0.00,,,0.00,VWS V14.01,2013-04-26 07:06:00,
2013-04-26 02:11:00,61.4,44.1,29.63,South,184,0.0,3.0,53,0.00,,,0.00,VWS V14.01,2013-04-26 07:11:00,
2013-04-26 02:16:00,61.5,43.7,29.63,SE,141,2.0,7.0,52,0.00,,,0.00,VWS V14.01,2013-04-26 07:16:00,
2013-04-26 02:21:00,61.7,44.4,29.62,ESE,105,1.0,2.0,53,0.00,,,0.00,VWS V14.01,2013-04-26 07:21:00,
2013-04-26 02:26:00,61.7,44.4,29.62,ESE,118,0.0,5.0,53,0.00,,,0.00,VWS V14.01,2013-04-26 07:26:00,
2013-04-26 02:31:00,61.7,44.4,29.62,SE,138,0.0,1.0,53,0.00,,,0.00,VWS V14.01,2013-04-26 07:31:00,
2013-04-26 02:36:00,61.6,44.3,29.62,SSE,151,2.0,2.0,53,0.00,,,0.00,VWS V14.01,2013-04-26 07:36:00,
2013-04-26 02:41:00,61.7,44.4,29.62,South,190,0.0,1.0,53,0.00,,,0.00,VWS V14.01,2013-04-26 07:41:00,
2013-04-26 02:46:00,61.7,44.4,29.62,ESE,109,1.0,5.0,53,0.00,,,0.00,VWS V14.01,2013-04-26 07:46:00,
2013-04-26 02:51:00,61.6,44.8,29.62,SE,138,1.0,1.0,54,0.00,,,0.00,VWS V14.01,2013-04-26 07:51:00,
2013-04-26 02:56:00,61.6,44.3,29.61,ESE,113,2.0,4.0,53,0.00,,,0.00,VWS V14.01,2013-04-26 07:56:00,
2013-04-26 03:01:00,61.6,44.8,29.61,ESE,109,0.0,2.0,54,0.00,,,0.00,VWS V14.01,2013-04-26 08:01:00,
2013-04-26 03:06:00,61.6,44.8,29.61,SE,144,0.0,4.0,54,0.00,,,0.00,VWS V14.01,2013-04-26 08:06:00,
2013-04-26 03:11:00,61.6,45.3,29.61,SSW,193,1.0,5.0,55,0.00,,,0.00,VWS V14.01,2013-04-26 08:11:00,
2013-04-26 03:16:00,61.7,45.4,29.60,ENE,75,7.0,7.0,55,0.00,,,0.00,VWS V14.01,2013-04-26 08:16:00,
2013-04-26 03:21:00,61.7,45.4,29.60,ESE,115,2.0,2.0,55,0.00,,,0.00,VWS V14.01,2013-04-26 08:21:00,
2013-04-26 03:26:00,61.8,45.5,29.60,South,191,1.0,5.0,55,0.00,,,0.00,VWS V14.01,2013-04-26 08:26:00,
2013-04-26 03:31:00,61.8,45.5,29.60,South,171,2.0,5.0,55,0.00,,,0.00,VWS V14.01,2013-04-26 08:31:00,
2013-04-26 03:36:00,61.8,45.5,29.60,SSE,161,1.0,6.0,55,0.00,,,0.00,VWS V14.01,2013-04-26 08:36:00,
2013-04-26 03:41:00,61.8,45.5,29.61,SSW,201,0.0,1.0,55,0.00,,,0.00,VWS V14.01,2013-04-26 08:41:00,
2013-04-26 03:46:00,61.8,45.5,29.61,South,178,0.0,3.0,55,0.00,,,0.00,VWS V14.01,2013-04-26 08:46:00,
2013-04-26 03:51:00,61.8,46.0,29.61,SE,128,0.0,2.0,56,0.00,,,0.00,VWS V14.01,2013-04-26 08:51:00,
2013-04-26 03:56:00,61.8,46.0,29.61,SE,130,0.0,3.0,56,0.00,,,0.00,VWS V14.01,2013-04-26 08:56:00,
2013-04-26 04:01:00,61.8,46.0,29.61,SE,130,1.0,1.0,56,0.00,,,0.00,VWS V14.01,2013-04-26 09:01:00,
2013-04-26 04:06:00,61.9,46.5,29.62,SE,130,0.0,1.0,57,0.00,,,0.00,VWS V14.01,2013-04-26 09:06:00,
2013-04-26 04:11:00,61.9,46.5,29.62,SSE,150,0.0,0.0,57,0.00,,,0.00,VWS V14.01,2013-04-26 09:11:00,
2013-04-26 04:16:00,61.9,47.0,29.62,SSE,150,0.0,1.0,58,0.00,,,0.00,VWS V14.01,2013-04-26 09:16:00,
2013-04-26 04:21:00,61.9,47.0,29.62,SSE,152,0.0,0.0,58,0.00,,,0.00,VWS V14.01,2013-04-26 09:21:00,
2013-04-26 04:26:00,61.9,47.4,29.62,SSE,152,0.0,2.0,59,0.00,,,0.00,VWS V14.01,2013-04-26 09:26:00,
2013-04-26 04:31:00,61.9,47.4,29.61,SSE,152,0.0,0.0,59,0.00,,,0.00,VWS V14.01,2013-04-26 09:31:00,
2013-04-26 04:36:00,61.9,47.4,29.61,SSE,164,0.0,3.0,59,0.00,,,0.00,VWS V14.01,2013-04-26 09:36:00,
2013-04-26 04:41:00,61.9,47.4,29.61,South,170,0.0,0.0,59,0.00,,,0.00,VWS V14.01,2013-04-26 09:41:00,
2013-04-26 04:46:00,61.9,47.4,29.61,SSE,166,1.0,2.0,59,0.00,,,0.00,VWS V14.01,2013-04-26 09:46:00,
2013-04-26 04:51:00,61.9,47.4,29.60,SSE,166,1.0,2.0,59,0.00,,,0.00,VWS V14.01,2013-04-26 09:51:00,
2013-04-26 04:56:00,61.8,47.3,29.60,SSE,166,0.0,3.0,59,0.00,,,0.00,VWS V14.01,2013-04-26 09:56:00,
2013-04-26 05:01:00,61.8,47.8,29.60,SE,146,0.0,0.0,60,0.00,,,0.00,VWS V14.01,2013-04-26 10:01:00,
2013-04-26 05:06:00,61.8,47.8,29.60,SE,146,0.0,2.0,60,0.00,,,0.00,VWS V14.01,2013-04-26 10:06:00,
2013-04-26 05:10:00,61.7,47.7,29.60,SE,146,1.0,2.0,60,0.00,,,0.00,VWS V14.01,2013-04-26 10:10:00,
2013-04-26 05:15:00,61.7,47.7,29.61,SE,146,1.0,2.0,60,0.00,,,0.00,VWS V14.01,2013-04-26 10:15:00,
2013-04-26 05:20:00,61.7,47.7,29.61,SE,146,1.0,2.0,60,0.00,,,0.00,VWS V14.01,2013-04-26 10:20:00,
2013-04-26 05:25:00,61.7,47.7,29.61,SE,146,0.0,2.0,60,0.00,,,0.00,VWS V14.01,2013-04-26 10:25:00,
2013-04-26 05:30:00,61.6,47.6,29.61,SE,144,1.0,1.0,60,0.00,,,0.00,VWS V14.01,2013-04-26 10:30:00,
2013-04-26 05:35:00,61.6,47.6,29.61,ESE,110,0.0,5.0,60,0.00,,,0.00,VWS V14.01,2013-04-26 10:35:00,
2013-04-26 05:40:00,61.6,48.0,29.61,ESE,110,0.0,0.0,61,0.00,,,0.00,VWS V14.01,2013-04-26 10:40:00,
2013-04-26 05:45:00,61.6,48.0,29.61,ESE,110,0.0,2.0,61,0.00,,,0.00,VWS V14.01,2013-04-26 10:45:00,
2013-04-26 05:50:00,61.6,48.0,29.60,ESE,110,0.0,2.0,61,0.00,,,0.00,VWS V14.01,2013-04-26 10:50:00,
2013-04-26 05:55:00,61.6,48.0,29.60,SE,131,0.0,4.0,61,0.00,,,0.00,VWS V14.01,2013-04-26 10:55:00,
2013-04-26 06:00:00,61.6,48.5,29.60,SE,132,0.0,0.0,62,0.00,,,0.00,VWS V14.01,2013-04-26 11:00:00,
2013-04-26 06:05:00,61.6,48.5,29.59,SE,126,1.0,3.0,62,0.00,,,0.00,VWS V14.01,2013-04-26 11:05:00,
2013-04-26 06:10:00,61.6,48.5,29.60,South,169,0.0,4.0,62,0.00,,,0.00,VWS V14.01,2013-04-26 11:10:00,
2013-04-26 06:15:00,61.7,48.6,29.60,SSE,166,0.0,4.0,62,0.00,,,0.00,VWS V14.01,2013-04-26 11:15:00,
2013-04-26 06:20:00,61.7,48.6,29.60,SSE,165,1.0,1.0,62,0.00,,,0.00,VWS V14.01,2013-04-26 11:20:00,
2013-04-26 06:25:00,61.8,49.1,29.60,SSE,163,1.0,2.0,63,0.00,,,0.00,VWS V14.01,2013-04-26 11:25:00,
2013-04-26 06:30:00,61.8,49.1,29.60,SSE,157,0.0,1.0,63,0.00,,,0.00,VWS V14.01,2013-04-26 11:30:00,
2013-04-26 06:35:00,61.8,49.1,29.60,SSE,156,3.0,4.0,63,0.00,,,0.00,VWS V14.01,2013-04-26 11:35:00,
2013-04-26 06:40:00,61.8,49.1,29.61,SSE,163,2.0,4.0,63,0.00,,,0.00,VWS V14.01,2013-04-26 11:40:00,
2013-04-26 06:45:00,61.8,49.5,29.60,SE,140,0.0,4.0,64,0.00,,,0.00,VWS V14.01,2013-04-26 11:45:00,
2013-04-26 06:50:00,61.8,49.5,29.60,SE,139,0.0,0.0,64,0.00,,,0.00,VWS V14.01,2013-04-26 11:50:00,
2013-04-26 06:55:00,61.9,49.6,29.60,SE,126,0.0,6.0,64,0.00,,,0.00,VWS V14.01,2013-04-26 11:55:00,
2013-04-26 07:00:00,61.8,49.9,29.61,ESE,103,0.0,1.0,65,0.00,,,0.00,VWS V14.01,2013-04-26 12:00:00,
2013-04-26 07:05:00,61.9,50.0,29.61,ESE,103,0.0,2.0,65,0.00,,,0.00,VWS V14.01,2013-04-26 12:05:00,
2013-04-26 07:10:00,61.9,50.0,29.61,ESE,102,0.0,2.0,65,0.00,,,0.00,VWS V14.01,2013-04-26 12:10:00,
2013-04-26 07:15:00,61.9,50.4,29.61,East,98,1.0,5.0,66,0.00,,,0.00,VWS V14.01,2013-04-26 12:15:00,
2013-04-26 07:20:00,61.9,50.4,29.62,ESE,103,0.0,0.0,66,0.00,,,0.00,VWS V14.01,2013-04-26 12:20:00,
2013-04-26 07:25:00,62.0,50.9,29.62,SE,138,0.0,4.0,67,0.00,,,0.00,VWS V14.01,2013-04-26 12:25:00,
2013-04-26 07:30:00,62.0,50.9,29.62,SE,142,3.0,3.0,67,0.00,,,0.00,VWS V14.01,2013-04-26 12:30:00,
2013-04-26 07:35:00,62.0,51.3,29.63,SE,144,0.0,3.0,68,0.00,,,0.00,VWS V14.01,2013-04-26 12:35:00,
2013-04-26 07:40:00,62.1,51.8,29.63,ESE,123,2.0,2.0,69,0.00,,,0.00,VWS V14.01,2013-04-26 12:40:00,
2013-04-26 07:45:00,62.2,52.3,29.63,SE,124,0.0,2.0,70,0.00,,,0.00,VWS V14.01,2013-04-26 12:45:00,
2013-04-26 07:50:00,62.3,52.4,29.63,ESE,120,0.0,0.0,70,0.00,,,0.00,VWS V14.01,2013-04-26 12:50:00,
2013-04-26 07:55:00,62.4,52.9,29.63,ESE,120,0.0,1.0,71,0.00,,,0.00,VWS V14.01,2013-04-26 12:55:00,
2013-04-26 08:00:00,62.5,53.4,29.64,ESE,119,0.0,1.0,72,0.00,,,0.00,VWS V14.01,2013-04-26 13:00:00,
2013-04-26 08:05:00,62.5,53.7,29.64,ESE,119,0.0,1.0,73,0.00,,,0.00,VWS V14.01,2013-04-26 13:05:00,
2013-04-26 08:10:00,62.6,53.8,29.64,ESE,119,0.0,0.0,73,0.00,,,0.00,VWS V14.01,2013-04-26 13:10:00,
2013-04-26 08:15:00,62.6,54.2,29.64,ESE,119,0.0,0.0,74,0.00,,,0.00,VWS V14.01,2013-04-26 13:15:00,
2013-04-26 08:20:00,62.7,54.7,29.64,ESE,119,0.0,0.0,75,0.00,,,0.00,VWS V14.01,2013-04-26 13:20:00,
2013-04-26 08:25:00,62.7,54.7,29.64,ESE,120,2.0,3.0,75,0.00,,,0.00,VWS V14.01,2013-04-26 13:25:00,
2013-04-26 08:30:00,62.7,55.0,29.65,ESE,120,0.0,0.0,76,0.00,,,0.00,VWS V14.01,2013-04-26 13:30:00,
2013-04-26 08:35:00,62.8,55.5,29.65,ESE,120,0.0,1.0,77,0.00,,,0.00,VWS V14.01,2013-04-26 13:35:00,
2013-04-26 08:40:00,62.8,55.8,29.65,ESE,120,0.0,0.0,78,0.00,,,0.00,VWS V14.01,2013-04-26 13:40:00,
2013-04-26 08:45:00,62.8,55.8,29.65,SE,127,0.0,2.0,78,0.00,,,0.00,VWS V14.01,2013-04-26 13:45:00,
2013-04-26 08:50:00,62.8,56.2,29.65,ESE,121,0.0,0.0,79,0.00,,,0.00,VWS V14.01,2013-04-26 13:50:00,
2013-04-26 08:55:00,62.9,56.3,29.65,SSE,148,1.0,3.0,79,0.00,,,0.00,VWS V14.01,2013-04-26 13:55:00,
2013-04-26 09:00:00,63.0,56.4,29.64,SSE,166,0.0,0.0,79,0.00,,,0.00,VWS V14.01,2013-04-26 14:00:00,
2013-04-26 09:05:00,63.0,56.4,29.65,SE,142,3.0,4.0,79,0.00,,,0.00,VWS V14.01,2013-04-26 14:05:00,
2013-04-26 09:10:00,63.1,56.5,29.64,SE,124,0.0,1.0,79,0.00,,,0.00,VWS V14.01,2013-04-26 14:10:00,
2013-04-26 09:15:00,63.2,56.6,29.65,South,185,0.0,4.0,79,0.00,,,0.00,VWS V14.01,2013-04-26 14:15:00,
2013-04-26 09:20:00,63.2,56.6,29.65,ESE,108,3.0,3.0,79,0.00,,,0.00,VWS V14.01,2013-04-26 14:20:00,
2013-04-26 09:25:00,63.2,56.6,29.65,ESE,107,3.0,3.0,79,0.00,,,0.00,VWS V14.01,2013-04-26 14:25:00,
2013-04-26 09:30:00,63.2,56.6,29.65,ESE,107,0.0,3.0,79,0.00,,,0.00,VWS V14.01,2013-04-26 14:30:00,
2013-04-26 09:35:00,63.2,56.6,29.65,ESE,109,0.0,3.0,79,0.00,,,0.00,VWS V14.01,2013-04-26 14:35:00,
2013-04-26 09:40:00,63.3,56.7,29.65,ESE,106,0.0,1.0,79,0.00,,,0.00,VWS V14.01,2013-04-26 14:40:00,
2013-04-26 09:45:00,63.4,57.1,29.65,South,179,3.0,3.0,80,0.00,,,0.00,VWS V14.01,2013-04-26 14:45:00,
2013-04-26 09:50:00,63.5,57.2,29.65,ESE,105,2.0,3.0,80,0.00,,,0.00,VWS V14.01,2013-04-26 14:50:00,
2013-04-26 09:55:00,63.6,57.3,29.65,ESE,105,0.0,3.0,80,0.00,,,0.00,VWS V14.01,2013-04-26 14:55:00,
2013-04-26 10:00:00,63.8,57.9,29.65,ESE,105,0.0,1.0,81,0.00,,,0.00,VWS V14.01,2013-04-26 15:00:00,
2013-04-26 10:05:00,64.0,58.1,29.65,East,84,1.0,6.0,81,0.00,,,0.00,VWS V14.01,2013-04-26 15:05:00,
2013-04-26 10:10:00,64.1,58.2,29.65,ESE,120,3.0,3.0,81,0.00,,,0.00,VWS V14.01,2013-04-26 15:10:00,
2013-04-26 10:15:00,64.2,58.6,29.65,SSE,154,0.0,3.0,82,0.00,,,0.00,VWS V14.01,2013-04-26 15:15:00,
2013-04-26 10:20:00,64.3,58.7,29.65,East,96,3.0,5.0,82,0.00,,,0.00,VWS V14.01,2013-04-26 15:20:00,
2013-04-26 10:25:00,64.5,59.2,29.65,SSE,152,0.0,5.0,83,0.00,,,0.00,VWS V14.01,2013-04-26 15:25:00,
2013-04-26 10:31:00,64.5,59.6,29.65,East,88,0.0,6.0,84,0.00,,,0.00,VWS V14.01,2013-04-26 15:31:00,
2013-04-26 10:36:00,65.1,59.8,29.64,SSE,164,6.0,6.0,83,0.00,,,0.00,VWS V14.01,2013-04-26 15:36:00,
2013-04-26 10:41:00,65.7,60.4,29.65,ESE,102,2.0,3.0,83,0.00,,,0.00,VWS V14.01,2013-04-26 15:41:00,
2013-04-26 10:46:00,65.4,60.1,29.65,East,98,0.0,6.0,83,0.00,,,0.00,VWS V14.01,2013-04-26 15:46:00,
2013-04-26 10:50:00,65.4,60.5,29.65,SE,146,0.0,1.0,84,0.00,,,0.00,VWS V14.01,2013-04-26 15:50:00,
2013-04-26 10:55:00,65.6,60.6,29.65,SSE,165,0.0,6.0,84,0.00,,,0.00,VWS V14.01,2013-04-26 15:55:00,
2013-04-26 11:00:00,66.1,60.8,29.65,ESE,107,2.0,7.0,83,0.00,,,0.00,VWS V14.01,2013-04-26 16:00:00,
2013-04-26 11:05:00,66.4,61.1,29.65,SSE,147,0.0,7.0,83,0.00,,,0.00,VWS V14.01,2013-04-26 16:05:00,
2013-04-26 11:10:00,66.8,61.5,29.65,SE,134,2.0,3.0,83,0.00,,,0.00,VWS V14.01,2013-04-26 16:10:00,
2013-04-26 11:15:00,67.1,61.8,29.65,ESE,115,1.0,6.0,83,0.00,,,0.00,VWS V14.01,2013-04-26 16:15:00,
2013-04-26 11:21:00,67.5,62.2,29.65,South,187,1.0,3.0,83,0.00,,,0.00,VWS V14.01,2013-04-26 16:21:00,
2013-04-26 11:26:00,67.7,62.4,29.65,SSW,192,3.0,5.0,83,0.00,,,0.00,VWS V14.01,2013-04-26 16:26:00,
2013-04-26 11:31:00,67.9,62.2,29.65,South,184,1.0,4.0,82,0.00,,,0.00,VWS V14.01,2013-04-26 16:31:00,
2013-04-26 11:36:00,68.2,62.5,29.65,South,185,0.0,4.0,82,0.00,,,0.00,VWS V14.01,2013-04-26 16:36:00,
2013-04-26 11:41:00,68.5,62.8,29.65,South,188,0.0,1.0,82,0.00,,,0.00,VWS V14.01,2013-04-26 16:41:00,
2013-04-26 11:46:00,68.4,62.7,29.65,SSE,148,1.0,3.0,82,0.00,,,0.00,VWS V14.01,2013-04-26 16:46:00,
2013-04-26 11:50:00,69.0,63.6,29.65,SSE,148,0.0,0.0,83,0.00,,,0.00,VWS V14.01,2013-04-26 16:50:00,
2013-04-26 11:56:00,69.2,63.8,29.64,South,173,0.0,3.0,83,0.00,,,0.00,VWS V14.01,2013-04-26 16:56:00,
2013-04-26 12:01:00,70.1,64.7,29.64,SSW,198,0.0,1.0,83,0.00,,,0.00,VWS V14.01,2013-04-26 17:01:00,
2013-04-26 12:05:00,70.7,65.3,29.64,South,173,1.0,6.0,83,0.00,,,0.00,VWS V14.01,2013-04-26 17:05:00,
2013-04-26 12:10:00,71.4,65.6,29.64,SSE,161,5.0,5.0,82,0.00,,,0.00,VWS V14.01,2013-04-26 17:10:00,
2013-04-26 12:15:00,71.4,65.3,29.64,South,178,6.0,6.0,81,0.00,,,0.00,VWS V14.01,2013-04-26 17:15:00,
2013-04-26 12:20:00,71.6,65.5,29.64,South,186,4.0,4.0,81,0.00,,,0.00,VWS V14.01,2013-04-26 17:20:00,
2013-04-26 12:26:00,71.8,66.0,29.63,SSW,213,1.0,7.0,82,0.00,,,0.00,VWS V14.01,2013-04-26 17:26:00,
2013-04-26 12:31:00,73.1,66.6,29.63,SSW,207,5.0,5.0,80,0.00,,,0.00,VWS V14.01,2013-04-26 17:31:00,
2013-04-26 12:36:00,74.2,66.9,29.63,SW,235,1.0,6.0,78,0.00,,,0.00,VWS V14.01,2013-04-26 17:36:00,
2013-04-26 12:41:00,73.9,66.2,29.63,SSW,209,0.0,3.0,77,0.00,,,0.00,VWS V14.01,2013-04-26 17:41:00,
2013-04-26 12:46:00,73.9,66.6,29.62,ESE,106,3.0,7.0,78,0.00,,,0.00,VWS V14.01,2013-04-26 17:46:00,
2013-04-26 12:51:00,74.0,67.1,29.61,SSE,165,3.0,5.0,79,0.00,,,0.00,VWS V14.01,2013-04-26 17:51:00,
2013-04-26 12:56:00,75.1,67.8,29.62,SSE,156,1.0,6.0,78,0.00,,,0.00,VWS V14.01,2013-04-26 17:56:00,
2013-04-26 13:01:00,74.7,66.6,29.62,South,178,2.0,2.0,76,0.00,,,0.00,VWS V14.01,2013-04-26 18:01:00,
2013-04-26 13:06:00,74.0,66.3,29.61,SW,227,4.0,6.0,77,0.00,,,0.00,VWS V14.01,2013-04-26 18:06:00,
2013-04-26 13:11:00,74.2,66.9,29.61,SSE,161,0.0,2.0,78,0.00,,,0.00,VWS V14.01,2013-04-26 18:11:00,
2013-04-26 13:16:00,74.6,66.9,29.60,SE,141,1.0,6.0,77,0.00,,,0.00,VWS V14.01,2013-04-26 18:16:00,
2013-04-26 13:21:00,75.1,67.4,29.60,East,83,1.0,9.0,77,0.00,,,0.00,VWS V14.01,2013-04-26 18:21:00,
2013-04-26 13:26:00,75.5,67.4,29.60,ESE,120,0.0,9.0,76,0.00,,,0.00,VWS V14.01,2013-04-26 18:26:00,
2013-04-26 13:31:00,75.3,67.2,29.60,SSW,203,0.0,1.0,76,0.00,,,0.00,VWS V14.01,2013-04-26 18:31:00,
2013-04-26 13:36:00,74.9,66.8,29.60,South,190,3.0,9.0,76,0.00,,,0.00,VWS V14.01,2013-04-26 18:36:00,
2013-04-26 13:41:00,75.2,67.1,29.59,South,182,2.0,3.0,76,0.00,,,0.00,VWS V14.01,2013-04-26 18:41:00,
2013-04-26 13:46:00,75.4,67.3,29.59,South,184,0.0,6.0,76,0.00,,,0.00,VWS V14.01,2013-04-26 18:46:00,
2013-04-26 13:51:00,75.3,67.2,29.59,SSW,197,2.0,2.0,76,0.00,,,0.00,VWS V14.01,2013-04-26 18:51:00,
2013-04-26 13:56:00,75.3,66.8,29.59,South,180,1.0,6.0,75,0.00,,,0.00,VWS V14.01,2013-04-26 18:56:00,
2013-04-26 14:01:00,75.3,67.2,29.58,South,190,2.0,3.0,76,0.00,,,0.00,VWS V14.01,2013-04-26 19:01:00,
2013-04-26 14:06:00,75.8,67.3,29.58,SSE,158,0.0,4.0,75,0.00,,,0.00,VWS V14.01,2013-04-26 19:06:00,
2013-04-26 14:11:00,76.0,67.5,29.58,SSE,150,2.0,6.0,75,0.00,,,0.00,VWS V14.01,2013-04-26 19:11:00,
2013-04-26 14:16:00,77.5,68.6,29.57,ESE,113,0.0,7.0,74,0.00,,,0.00,VWS V14.01,2013-04-26 19:16:00,
2013-04-26 14:21:00,77.5,67.8,29.57,East,98,3.0,6.0,72,0.00,,,0.00,VWS V14.01,2013-04-26 19:21:00,
2013-04-26 14:26:00,76.9,67.6,29.58,South,184,3.0,7.0,73,0.00,,,0.00,VWS V14.01,2013-04-26 19:26:00,
2013-04-26 14:31:00,77.3,67.6,29.58,SW,216,5.0,5.0,72,0.00,,,0.00,VWS V14.01,2013-04-26 19:31:00,
2013-04-26 14:36:00,77.6,68.7,29.57,SE,145,5.0,7.0,74,0.00,,,0.00,VWS V14.01,2013-04-26 19:36:00,
2013-04-26 14:41:00,79.0,69.2,29.57,SSW,192,1.0,2.0,72,0.00,,,0.00,VWS V14.01,2013-04-26 19:41:00,
2013-04-26 14:46:00,79.2,68.2,29.57,South,187,0.0,8.0,69,0.00,,,0.00,VWS V14.01,2013-04-26 19:46:00,
2013-04-26 14:51:00,78.7,67.7,29.57,SE,141,1.0,1.0,69,0.00,,,0.00,VWS V14.01,2013-04-26 19:51:00,
2013-04-26 14:56:00,79.1,68.9,29.56,South,180,0.0,4.0,71,0.00,,,0.00,VWS V14.01,2013-04-26 19:56:00,
2013-04-26 15:01:00,79.6,68.5,29.56,SE,146,1.0,3.0,69,0.00,,,0.00,VWS V14.01,2013-04-26 20:01:00,
2013-04-26 15:06:00,79.0,67.6,29.56,SSW,192,0.0,8.0,68,0.00,,,0.00,VWS V14.01,2013-04-26 20:06:00,
2013-04-26 15:11:00,79.3,67.8,29.56,SSE,153,0.0,2.0,68,0.00,,,0.00,VWS V14.01,2013-04-26 20:11:00,
2013-04-26 15:16:00,80.4,68.0,29.55,South,185,1.0,7.0,66,0.00,,,0.00,VWS V14.01,2013-04-26 20:16:00,
2013-04-26 15:21:00,80.9,68.0,29.55,South,173,3.0,4.0,65,0.00,,,0.00,VWS V14.01,2013-04-26 20:21:00,
2013-04-26 15:26:00,80.8,67.0,29.55,SSW,196,4.0,11.0,63,0.00,,,0.00,VWS V14.01,2013-04-26 20:26:00,
2013-04-26 15:31:00,80.5,66.3,29.55,SE,138,0.0,3.0,62,0.00,,,0.00,VWS V14.01,2013-04-26 20:31:00,
2013-04-26 15:36:00,80.3,66.6,29.54,West,263,1.0,5.0,63,0.00,,,0.00,VWS V14.01,2013-04-26 20:36:00,
2013-04-26 15:41:00,80.2,66.5,29.54,South,184,1.0,2.0,63,0.00,,,0.00,VWS V14.01,2013-04-26 20:41:00,
2013-04-26 15:46:00,81.0,67.2,29.54,SW,236,1.0,6.0,63,0.00,,,0.00,VWS V14.01,2013-04-26 20:46:00,
2013-04-26 15:51:00,80.5,66.8,29.54,SSE,147,1.0,3.0,63,0.00,,,0.00,VWS V14.01,2013-04-26 20:51:00,
2013-04-26 15:56:00,80.1,66.4,29.54,SE,138,7.0,7.0,63,0.00,,,0.00,VWS V14.01,2013-04-26 20:56:00,
2013-04-26 16:01:00,79.9,65.7,29.54,SSW,213,4.0,4.0,62,0.00,,,0.00,VWS V14.01,2013-04-26 21:01:00,
2013-04-26 16:06:00,79.8,65.6,29.53,South,175,1.0,7.0,62,0.00,,,0.00,VWS V14.01,2013-04-26 21:06:00,
2013-04-26 16:11:00,79.7,65.5,29.53,South,190,4.0,4.0,62,0.00,,,0.00,VWS V14.01,2013-04-26 21:11:00,
2013-04-26 16:16:00,79.3,65.2,29.53,South,187,3.0,7.0,62,0.00,,,0.00,VWS V14.01,2013-04-26 21:16:00,
2013-04-26 16:21:00,79.0,65.3,29.53,SSW,207,1.0,1.0,63,0.00,,,0.00,VWS V14.01,2013-04-26 21:21:00,
2013-04-26 16:26:00,78.9,65.7,29.53,South,181,0.0,2.0,64,0.00,,,0.00,VWS V14.01,2013-04-26 21:26:00,
2013-04-26 16:31:00,78.8,65.6,29.53,South,182,0.0,8.0,64,0.00,,,0.00,VWS V14.01,2013-04-26 21:31:00,
2013-04-26 16:36:00,78.6,65.4,29.53,South,184,0.0,8.0,64,0.00,,,0.00,VWS V14.01,2013-04-26 21:36:00,
2013-04-26 16:41:00,78.4,65.7,29.53,South,180,0.0,2.0,65,0.00,,,0.00,VWS V14.01,2013-04-26 21:41:00,
2013-04-26 16:46:00,78.2,66.4,29.53,South,171,1.0,5.0,67,0.00,,,0.00,VWS V14.01,2013-04-26 21:46:00,
2013-04-26 16:51:00,78.6,66.7,29.52,South,175,0.0,0.0,67,0.00,,,0.00,VWS V14.01,2013-04-26 21:51:00,
2013-04-26 16:56:00,79.0,67.1,29.51,SSW,195,0.0,4.0,67,0.00,,,0.00,VWS V14.01,2013-04-26 21:56:00,
2013-04-26 17:01:00,79.3,67.4,29.51,SSW,209,1.0,1.0,67,0.00,,,0.00,VWS V14.01,2013-04-26 22:01:00,
2013-04-26 17:06:00,79.5,67.6,29.50,SW,216,4.0,6.0,67,0.00,,,0.00,VWS V14.01,2013-04-26 22:06:00,
2013-04-26 17:11:00,79.7,67.3,29.49,SSE,153,3.0,3.0,66,0.00,,,0.00,VWS V14.01,2013-04-26 22:11:00,
2013-04-26 17:16:00,80.1,67.3,29.50,South,187,2.0,6.0,65,0.00,,,0.00,VWS V14.01,2013-04-26 22:16:00,
2013-04-26 17:21:00,80.1,67.3,29.50,SSW,204,1.0,4.0,65,0.00,,,0.00,VWS V14.01,2013-04-26 22:21:00,
2013-04-26 17:26:00,80.1,66.8,29.50,SSE,165,4.0,10.0,64,0.00,,,0.00,VWS V14.01,2013-04-26 22:26:00,
2013-04-26 17:31:00,79.6,66.4,29.50,SSE,165,1.0,1.0,64,0.00,,,0.00,VWS V14.01,2013-04-26 22:31:00,
2013-04-26 17:36:00,79.2,66.4,29.50,SSE,151,0.0,6.0,65,0.00,,,0.00,VWS V14.01,2013-04-26 22:36:00,
2013-04-26 17:41:00,79.0,66.7,29.50,SSW,210,1.0,2.0,66,0.00,,,0.00,VWS V14.01,2013-04-26 22:41:00,
2013-04-26 17:46:00,78.9,66.6,29.51,ESE,109,0.0,5.0,66,0.00,,,0.00,VWS V14.01,2013-04-26 22:46:00,
2013-04-26 17:51:00,78.9,66.6,29.51,SSW,201,3.0,3.0,66,0.00,,,0.00,VWS V14.01,2013-04-26 22:51:00,
2013-04-26 17:56:00,78.9,67.0,29.51,SSW,205,1.0,8.0,67,0.00,,,0.00,VWS V14.01,2013-04-26 22:56:00,
2013-04-26 18:01:00,78.7,66.4,29.51,South,181,3.0,4.0,66,0.00,,,0.00,VWS V14.01,2013-04-26 23:01:00,
2013-04-26 18:06:00,78.7,66.8,29.51,SW,228,0.0,5.0,67,0.00,,,0.00,VWS V14.01,2013-04-26 23:06:00,
2013-04-26 18:11:00,78.7,66.8,29.50,SSW,192,0.0,2.0,67,0.00,,,0.00,VWS V14.01,2013-04-26 23:11:00,
2013-04-26 18:16:00,78.7,66.8,29.50,South,170,4.0,4.0,67,0.00,,,0.00,VWS V14.01,2013-04-26 23:16:00,
2013-04-26 18:21:00,78.8,66.9,29.50,SSE,161,0.0,0.0,67,0.00,,,0.00,VWS V14.01,2013-04-26 23:21:00,
2013-04-26 18:26:00,78.9,67.4,29.50,SSE,163,0.0,1.0,68,0.00,,,0.00,VWS V14.01,2013-04-26 23:26:00,
2013-04-26 18:31:00,78.8,67.4,29.49,ESE,119,0.0,0.0,68,0.00,,,0.00,VWS V14.01,2013-04-26 23:31:00,
2013-04-26 18:36:00,78.6,67.6,29.49,SSW,194,0.0,4.0,69,0.00,,,0.00,VWS V14.01,2013-04-26 23:36:00,
2013-04-26 18:41:00,78.5,67.5,29.49,ESE,113,0.0,1.0,69,0.00,,,0.00,VWS V14.01,2013-04-26 23:41:00,
2013-04-26 18:46:00,78.3,67.3,29.48,South,183,2.0,7.0,69,0.00,,,0.00,VWS V14.01,2013-04-26 23:46:00,
2013-04-26 18:51:00,78.3,67.3,29.46,SE,143,0.0,2.0,69,0.00,,,0.00,VWS V14.01,2013-04-26 23:51:00,
2013-04-26 19:05:00,78.3,66.9,29.46,SSW,200,2.0,6.0,68,0.00,,,0.00,VWS V14.01,2013-04-27 00:05:00,
2013-04-26 19:10:00,78.4,67.0,29.47,SSW,195,0.0,1.0,68,0.00,,,0.00,VWS V14.01,2013-04-27 00:10:00,
2013-04-26 19:15:00,78.5,67.1,29.48,SSW,199,0.0,4.0,68,0.00,,,0.00,VWS V14.01,2013-04-27 00:15:00,
2013-04-26 19:20:00,78.5,67.1,29.49,SSW,199,0.0,0.0,68,0.00,,,0.00,VWS V14.01,2013-04-27 00:20:00,
2013-04-26 19:25:00,78.3,66.9,29.49,SSE,151,0.0,3.0,68,0.00,,,0.00,VWS V14.01,2013-04-27 00:25:00,
2013-04-26 19:30:00,78.2,67.2,29.49,SSE,151,0.0,0.0,69,0.00,,,0.00,VWS V14.01,2013-04-27 00:30:00,
2013-04-26 19:35:00,78.0,67.0,29.48,SSE,151,0.0,1.0,69,0.00,,,0.00,VWS V14.01,2013-04-27 00:35:00,
2013-04-26 19:40:00,77.8,66.8,29.48,SSE,148,2.0,4.0,69,0.00,,,0.00,VWS V14.01,2013-04-27 00:40:00,
2013-04-26 19:45:00,77.6,66.6,29.48,SSE,147,0.0,4.0,69,0.00,,,0.00,VWS V14.01,2013-04-27 00:45:00,
2013-04-26 19:50:00,77.4,66.4,29.48,South,177,0.0,0.0,69,0.00,,,0.00,VWS V14.01,2013-04-27 00:50:00,
2013-04-26 19:55:00,77.1,66.6,29.48,South,180,0.0,2.0,70,0.00,,,0.00,VWS V14.01,2013-04-27 00:55:00,
2013-04-26 20:00:00,76.8,66.3,29.48,South,179,0.0,0.0,70,0.00,,,0.00,VWS V14.01,2013-04-27 01:00:00,
2013-04-26 20:05:00,76.6,66.5,29.48,South,175,0.0,2.0,71,0.00,,,0.00,VWS V14.01,2013-04-27 01:05:00,
2013-04-26 20:10:00,76.5,66.4,29.49,South,175,0.0,0.0,71,0.00,,,0.00,VWS V14.01,2013-04-27 01:10:00,
2013-04-26 20:15:00,76.4,66.3,29.49,South,175,1.0,2.0,71,0.00,,,0.00,VWS V14.01,2013-04-27 01:15:00,
2013-04-26 20:20:00,76.3,66.2,29.49,South,176,0.0,3.0,71,0.00,,,0.00,VWS V14.01,2013-04-27 01:20:00,
2013-04-26 20:25:00,76.3,66.2,29.49,South,173,0.0,3.0,71,0.00,,,0.00,VWS V14.01,2013-04-27 01:25:00,
2013-04-26 20:30:00,76.3,66.2,29.49,South,173,0.0,1.0,71,0.00,,,0.00,VWS V14.01,2013-04-27 01:30:00,
2013-04-26 20:35:00,76.3,66.2,29.49,South,175,0.0,3.0,71,0.00,,,0.00,VWS V14.01,2013-04-27 01:35:00,
2013-04-26 20:40:00,76.3,66.2,29.49,SSE,167,0.0,1.0,71,0.00,,,0.00,VWS V14.01,2013-04-27 01:40:00,
2013-04-26 20:45:00,76.4,66.3,29.50,SSE,167,0.0,3.0,71,0.00,,,0.00,VWS V14.01,2013-04-27 01:45:00,
2013-04-26 20:50:00,76.3,66.2,29.50,SSE,167,0.0,0.0,71,0.00,,,0.00,VWS V14.01,2013-04-27 01:50:00,
2013-04-26 20:55:00,76.3,66.2,29.50,SSE,167,0.0,2.0,71,0.00,,,0.00,VWS V14.01,2013-04-27 01:55:00,
2013-04-26 21:00:00,76.2,66.1,29.50,South,170,0.0,0.0,71,0.00,,,0.00,VWS V14.01,2013-04-27 02:00:00,
2013-04-26 21:05:00,76.1,66.0,29.50,South,171,0.0,5.0,71,0.00,,,0.00,VWS V14.01,2013-04-27 02:05:00,
2013-04-26 21:10:00,76.0,65.9,29.50,South,171,0.0,1.0,71,0.00,,,0.00,VWS V14.01,2013-04-27 02:10:00,
2013-04-26 21:15:00,76.0,65.9,29.50,South,171,0.0,3.0,71,0.00,,,0.00,VWS V14.01,2013-04-27 02:15:00,
2013-04-26 21:20:00,75.9,66.2,29.50,South,171,0.0,2.0,72,0.00,,,0.00,VWS V14.01,2013-04-27 02:20:00,
2013-04-26 21:25:00,75.8,66.1,29.51,South,173,0.0,3.0,72,0.00,,,0.00,VWS V14.01,2013-04-27 02:25:00,
2013-04-26 21:30:00,75.8,66.1,29.50,East,92,0.0,0.0,72,0.00,,,0.00,VWS V14.01,2013-04-27 02:30:00,
2013-04-26 21:35:00,75.7,66.0,29.51,South,175,0.0,3.0,72,0.00,,,0.00,VWS V14.01,2013-04-27 02:35:00,
2013-04-26 21:40:00,75.7,66.0,29.51,SSW,211,0.0,0.0,72,0.00,,,0.00,VWS V14.01,2013-04-27 02:40:00,
2013-04-26 21:45:00,75.6,65.9,29.50,SE,146,0.0,3.0,72,0.00,,,0.00,VWS V14.01,2013-04-27 02:45:00,
2013-04-26 21:50:00,75.4,66.2,29.48,East,93,2.0,5.0,73,0.00,,,0.00,VWS V14.01,2013-04-27 02:50:00,
2013-04-26 21:55:00,75.3,66.1,29.51,SSW,194,1.0,9.0,73,0.00,,,0.00,VWS V14.01,2013-04-27 02:55:00,
2013-04-26 22:00:00,75.4,66.2,29.51,SE,131,1.0,1.0,73,0.00,,,0.00,VWS V14.01,2013-04-27 03:00:00,
2013-04-26 22:05:00,75.4,66.2,29.51,SSW,196,2.0,5.0,73,0.00,,,0.00,VWS V14.01,2013-04-27 03:05:00,
2013-04-26 22:10:00,75.4,66.2,29.52,South,186,5.0,5.0,73,0.00,,,0.00,VWS V14.01,2013-04-27 03:10:00,
2013-04-26 22:15:00,75.4,66.2,29.52,South,169,4.0,7.0,73,0.00,,,0.00,VWS V14.01,2013-04-27 03:15:00,
2013-04-26 22:20:00,75.4,66.5,29.52,ENE,76,4.0,10.0,74,0.00,,,0.00,VWS V14.01,2013-04-27 03:20:00,
2013-04-26 22:25:00,75.3,66.4,29.52,South,187,1.0,10.0,74,0.00,,,0.00,VWS V14.01,2013-04-27 03:25:00,
2013-04-26 22:30:00,75.2,66.3,29.52,SW,222,3.0,5.0,74,0.00,,,0.00,VWS V14.01,2013-04-27 03:30:00,
2013-04-26 22:35:00,75.1,66.2,29.52,East,98,5.0,11.0,74,0.00,,,0.00,VWS V14.01,2013-04-27 03:35:00,
2013-04-26 22:40:00,75.0,66.2,29.51,East,94,2.0,5.0,74,0.00,,,0.00,VWS V14.01,2013-04-27 03:40:00,
2013-04-26 22:45:00,74.8,66.0,29.52,SSW,195,1.0,12.0,74,0.00,,,0.00,VWS V14.01,2013-04-27 03:45:00,
2013-04-26 22:50:00,74.7,66.3,29.52,SSE,163,0.0,3.0,75,0.00,,,0.00,VWS V14.01,2013-04-27 03:50:00,
2013-04-26 22:55:00,74.5,66.1,29.52,South,182,1.0,8.0,75,0.00,,,0.00,VWS V14.01,2013-04-27 03:55:00,
2013-04-26 23:00:00,74.4,66.0,29.52,SE,141,3.0,9.0,75,0.00,,,0.00,VWS V14.01,2013-04-27 04:00:00,
2013-04-26 23:01:00,74.4,66.0,29.52,South,182,4.0,9.0,75,0.00,,,0.00,VWS V14.01,2013-04-27 04:01:00,
2013-04-26 23:06:00,74.3,65.9,29.51,SE,144,9.0,9.0,75,0.00,,,0.00,VWS V14.01,2013-04-27 04:06:00,
2013-04-26 23:11:00,74.2,66.2,29.51,SSW,209,0.0,7.0,76,0.00,,,0.00,VWS V14.01,2013-04-27 04:11:00,
2013-04-26 23:16:00,74.1,66.1,29.51,SSW,192,6.0,8.0,76,0.00,,,0.00,VWS V14.01,2013-04-27 04:16:00,
2013-04-26 23:21:00,74.0,66.3,29.54,SW,215,2.0,4.0,77,0.00,,,0.00,VWS V14.01,2013-04-27 04:21:00,
2013-04-26 23:26:00,73.9,66.6,29.53,SSE,159,0.0,4.0,78,0.00,,,0.00,VWS V14.01,2013-04-27 04:26:00,
2013-04-26 23:31:00,73.7,66.4,29.53,SSW,200,4.0,6.0,78,0.00,,,0.00,VWS V14.01,2013-04-27 04:31:00,
2013-04-26 23:36:00,73.6,66.7,29.54,SSW,192,6.0,7.0,79,0.00,,,0.00,VWS V14.01,2013-04-27 04:36:00,
2013-04-26 23:41:00,73.5,66.6,29.54,West,263,0.0,2.0,79,0.00,,,0.00,VWS V14.01,2013-04-27 04:41:00,
2013-04-26 23:46:00,73.3,66.4,29.54,SSE,160,0.0,7.0,79,0.00,,,0.00,VWS V14.01,2013-04-27 04:46:00,
2013-04-26 23:51:00,73.1,66.6,29.54,SSE,166,1.0,2.0,80,0.00,,,0.00,VWS V14.01,2013-04-27 04:51:00,
2013-04-26 23:56:00,73.0,66.5,29.53,SSW,207,4.0,4.0,80,0.00,,,0.00,VWS V14.01,2013-04-27 04:56:00,